Terminal Aerodrome Forecast
Issued by NWS

Home | Current Version | Previous Version | Text Only | Print | Product List | Glossary On
Versions: 1 2 3 4 5 6 7 8 9 10 11 12 13 14 15 16 17 18 19 20 21 22
000
FTUS45 KREV 182300
TAFTVL
TAF
KTVL 182320Z 1900/1924 20010G20KT 6SM FU HZ SCT040 BKN080
     FM190300 VRB03KT P6SM BKN080
     FM191800 03008KT P6SM SCT100 BKN140=

USA.gov is the U.S. government's official web portal to all federal, state and local government web resources and services.